Saginaw Browne, MI

6:10 PM EDT on March 28, 2017 (GMT -0400)
Saginaw County-Browne

Weather History for KHYX - November, 2013

Change the Weather History Date:

Friday, November 1, 2013

  Actual Average (KMBS) Record (KMBS)
Temperature  
Mean Temperature 52 °F -  
Max Temperature 60 °F 50 °F 74 °F (2016)
Min Temperature 44 °F 34 °F 26 °F (2006)
Degree Days  
Heating Degree Days 13    
Growing Degree Days 2 (Base 50)    
Moisture  
Dew Point 45 °F    
Average Humidity 91    
Maximum Humidity 100    
Minimum Humidity 76    
Precipitation  
Precipitation 0.00 in - - ()
Sea Level Pressure  
Sea Level Pressure 29.40 in    
Wind  
Wind Speed 18 mph (WSW)    
Max Wind Speed 30 mph    
Max Gust Speed 44 mph    
Visibility 8 miles    
Events Rain    
Averages and records for this station are not official NWS values.
T = Trace of Precipitation, MM = Missing Value Source: NWS Daily Summary

Daily Weather History Graph

Daily Weather History Graph

Search for Another Location

Airport or City:

Trip Planner

Search our weather history database for the weather conditions in past years. The results will help you decide how hot, cold, wet, or windy it might be!

Date:

Astronomy

Nov. 01, 2013 Rise Set
Actual Time 8:11 AM EDT 6:26 PM EDT
Civil Twilight 7:41 AM EDT 6:56 PM EDT
Nautical Twilight 7:07 AM EDT 7:29 PM EDT
Astronomical Twilight 6:34 AM EDT 8:03 PM EDT
Moon 5:59 AM EDT (11/1) 5:21 PM EDT (11/1)
Length of Visible Light 11h 14m
Length of Day
10h 15m
Waning Crescent, 4% of the Moon is Illuminated
Nov 1
Waning Crescent
Nov 3
New
Nov 10
First Quarter
Nov 17
Full
Nov 25
Last Quarter

Hourly Weather History & Observations

Time (EDT) Temp. Windchill Dew Point Humidity Pressure Visibility Wind Dir Wind Speed Gust Speed Precip Events Conditions
12:14 AM 60.8 °F - 59.0 °F 94% 29.07 in 10.0 mi South 18.4 mph 26.5 mph N/A   Overcast
12:34 AM 60.8 °F - 59.0 °F 94% 29.05 in 7.0 mi SSW 21.9 mph 26.5 mph N/A Rain Light Rain
12:54 AM 60.8 °F - 59.0 °F 94% 29.04 in 10.0 mi SW 21.9 mph 29.9 mph N/A   Overcast
1:14 AM 59.0 °F - 55.4 °F 88% 29.05 in 10.0 mi SW 21.9 mph 28.8 mph N/A   Overcast
1:34 AM 59.0 °F - 55.4 °F 88% 29.08 in 10.0 mi WSW 18.4 mph 31.1 mph N/A   Overcast
1:54 AM 57.2 °F - 53.6 °F 88% 29.05 in 10.0 mi WSW 12.7 mph 25.3 mph N/A   Light Drizzle
2:14 AM 55.4 °F - 53.6 °F 94% 29.05 in 10.0 mi WSW 17.3 mph 24.2 mph N/A   Light Drizzle
2:35 AM 55.4 °F - 53.6 °F 94% 29.06 in 10.0 mi WSW 17.3 mph 24.2 mph N/A Rain Rain
2:54 AM 55.4 °F - 53.6 °F 94% 29.06 in 10.0 mi WSW 20.7 mph 26.5 mph N/A   Overcast
3:14 AM 53.6 °F - 53.6 °F 100% 29.08 in 3.0 mi WSW 16.1 mph 25.3 mph N/A Rain Light Rain
3:34 AM 53.6 °F - 51.8 °F 94% 29.11 in 4.0 mi WSW 24.2 mph 33.4 mph N/A Rain Rain
3:54 AM 53.6 °F - 51.8 °F 94% 29.12 in 7.0 mi WSW 25.3 mph 31.1 mph N/A Rain Light Rain
4:14 AM 51.8 °F - 50.0 °F 94% 29.14 in 10.0 mi WSW 26.5 mph 35.7 mph N/A   Overcast
4:34 AM 51.8 °F - 46.4 °F 82% 29.16 in 10.0 mi WSW 24.2 mph 39.1 mph N/A   Overcast
4:54 AM 50.0 °F - 46.4 °F 87% 29.18 in 10.0 mi WSW 29.9 mph 38.0 mph N/A   Overcast
5:14 AM 50.0 °F - 44.6 °F 82% 29.20 in 10.0 mi WSW 23.0 mph 43.7 mph N/A   Overcast
5:34 AM 50.0 °F - 44.6 °F 82% 29.21 in 10.0 mi WSW 21.9 mph 36.8 mph N/A   Overcast
5:54 AM 48.2 °F - 44.6 °F 87% 29.22 in 10.0 mi WSW 26.5 mph 36.8 mph N/A   Overcast
6:14 AM 48.2 °F - 42.8 °F 82% 29.24 in 10.0 mi WSW 26.5 mph 35.7 mph N/A   Overcast
6:34 AM 46.4 °F 38.3 °F 42.8 °F 87% 29.26 in 10.0 mi WSW 23.0 mph 34.5 mph N/A   Overcast
6:54 AM 46.4 °F 37.5 °F 42.8 °F 87% 29.27 in 10.0 mi WSW 27.6 mph 38.0 mph N/A   Overcast
7:14 AM 46.4 °F 39.0 °F 42.8 °F 87% 29.28 in 10.0 mi WSW 19.6 mph 34.5 mph N/A   Overcast
7:34 AM 46.4 °F 37.7 °F 42.8 °F 87% 29.30 in 10.0 mi WSW 26.5 mph 34.5 mph N/A   Overcast
7:54 AM 46.4 °F 38.1 °F 42.8 °F 87% 29.32 in 10.0 mi WSW 24.2 mph 35.7 mph N/A   Overcast
8:14 AM 46.4 °F 37.5 °F 42.8 °F 87% 29.33 in 10.0 mi WSW 27.6 mph 34.5 mph N/A   Overcast
8:34 AM 46.4 °F 38.5 °F 42.8 °F 87% 29.35 in 4.0 mi WSW 21.9 mph 34.5 mph N/A   Overcast
8:54 AM 46.4 °F 39.0 °F 42.8 °F 87% 29.37 in 7.0 mi WSW 19.6 mph 31.1 mph N/A   Overcast
9:14 AM 46.4 °F 38.5 °F 42.8 °F 87% 29.39 in 4.0 mi WSW 21.9 mph 27.6 mph N/A   Overcast
9:34 AM 44.6 °F 37.2 °F 42.8 °F 93% 29.41 in 1.8 mi WSW 17.3 mph 25.3 mph N/A   Overcast
9:54 AM 44.6 °F 36.6 °F 44.6 °F 100% 29.43 in 1.5 mi WSW 19.6 mph 24.2 mph N/A   Overcast
10:14 AM 44.6 °F 36.9 °F 44.6 °F 100% 29.44 in 4.0 mi WSW 18.4 mph 24.2 mph N/A   Overcast
10:34 AM 46.4 °F 40.1 °F 44.6 °F 93% 29.45 in 10.0 mi WSW 15.0 mph 24.2 mph N/A   Overcast
10:54 AM 46.4 °F 39.8 °F 44.6 °F 93% 29.45 in 10.0 mi SW 16.1 mph 23.0 mph N/A   Overcast
11:14 AM 46.4 °F 39.2 °F 44.6 °F 93% 29.46 in 5.0 mi WSW 18.4 mph 23.0 mph N/A   Overcast
11:34 AM 46.4 °F 40.1 °F 44.6 °F 93% 29.46 in 4.0 mi WSW 15.0 mph 24.2 mph N/A   Overcast
11:54 AM 46.4 °F 39.5 °F 44.6 °F 93% 29.47 in 4.0 mi SW 17.3 mph 27.6 mph N/A   Overcast
12:14 PM 46.4 °F 39.2 °F 44.6 °F 93% 29.47 in 10.0 mi WSW 18.4 mph 24.2 mph N/A   Overcast
12:34 PM 46.4 °F 39.2 °F 42.8 °F 87% 29.48 in 10.0 mi WSW 18.4 mph 25.3 mph N/A   Overcast
12:54 PM 50.0 °F - 42.8 °F 76% 29.48 in 10.0 mi WSW 18.4 mph 26.5 mph N/A   Overcast
1:14 PM 48.2 °F - 41.0 °F 76% 29.49 in 10.0 mi WSW 19.6 mph 26.5 mph N/A   Overcast
1:34 PM 48.2 °F - 41.0 °F 76% 29.50 in 10.0 mi SW 13.8 mph 21.9 mph N/A   Overcast
1:54 PM 48.2 °F - 41.0 °F 76% 29.51 in 10.0 mi WSW 16.1 mph - N/A   Overcast
2:14 PM 48.2 °F - 41.0 °F 76% 29.51 in 10.0 mi WSW 15.0 mph 19.6 mph N/A   Overcast
2:34 PM 48.2 °F - 41.0 °F 76% 29.51 in 10.0 mi SW 11.5 mph - N/A   Overcast
2:54 PM 46.4 °F 39.8 °F 41.0 °F 81% 29.52 in 10.0 mi WSW 16.1 mph 19.6 mph N/A   Overcast
3:14 PM 46.4 °F 39.8 °F 41.0 °F 81% 29.53 in 10.0 mi WSW 16.1 mph - N/A   Overcast
3:34 PM 46.4 °F 41.1 °F 42.8 °F 87% 29.54 in 7.0 mi SW 11.5 mph - N/A   Overcast
3:54 PM 46.4 °F 41.5 °F 42.8 °F 87% 29.54 in 5.0 mi SW 10.4 mph 18.4 mph N/A   Overcast
4:14 PM 46.4 °F 41.5 °F 42.8 °F 87% 29.55 in 5.0 mi SW 10.4 mph - N/A Rain Light Rain
4:34 PM 46.4 °F 42.4 °F 42.8 °F 87% 29.56 in 7.0 mi SW 8.1 mph - N/A Rain Light Rain
4:54 PM 46.4 °F 41.9 °F 42.8 °F 87% 29.56 in 7.0 mi SW 9.2 mph - N/A Rain Light Rain
5:14 PM 46.4 °F 41.9 °F 44.6 °F 93% 29.57 in 7.0 mi SW 9.2 mph - N/A   Overcast
5:34 PM 46.4 °F 42.9 °F 44.6 °F 93% 29.57 in 10.0 mi SW 6.9 mph - N/A   Overcast
5:54 PM 46.4 °F 41.9 °F 42.8 °F 87% 29.57 in 10.0 mi SW 9.2 mph - N/A   Overcast
6:14 PM 44.6 °F 40.7 °F 42.8 °F 93% 29.58 in 7.0 mi SW 6.9 mph - N/A Rain Light Rain
6:34 PM 44.6 °F 40.2 °F 42.8 °F 93% 29.58 in 10.0 mi SW 8.1 mph - N/A   Overcast
6:54 PM 44.6 °F 40.2 °F 42.8 °F 93% 29.59 in 10.0 mi SW 8.1 mph - N/A   Overcast
7:14 PM 44.6 °F 39.7 °F 42.8 °F 93% 29.60 in 7.0 mi SW 9.2 mph - N/A   Light Drizzle
7:34 PM 44.6 °F 40.2 °F 42.8 °F 93% 29.61 in 5.0 mi SW 8.1 mph - N/A Rain Light Rain
7:54 PM 44.6 °F 40.2 °F 42.8 °F 93% 29.61 in 10.0 mi SW 8.1 mph - N/A   Overcast
8:14 PM 44.6 °F 39.2 °F 44.6 °F 100% 29.61 in 7.0 mi SW 10.4 mph - N/A   Overcast
8:34 PM 44.6 °F 40.2 °F 44.6 °F 100% 29.61 in 7.0 mi SW 8.1 mph - N/A   Overcast
8:54 PM 44.6 °F 40.2 °F 44.6 °F 100% 29.61 in 7.0 mi SW 8.1 mph - N/A   Overcast
9:14 PM 44.6 °F 39.7 °F 44.6 °F 100% 29.61 in 7.0 mi SW 9.2 mph - N/A   Overcast
9:34 PM 44.6 °F 40.2 °F 44.6 °F 100% 29.61 in 7.0 mi SW 8.1 mph - N/A   Overcast
9:54 PM 44.6 °F 40.2 °F 44.6 °F 100% 29.62 in 7.0 mi WSW 8.1 mph - N/A   Overcast
10:14 PM 44.6 °F 39.7 °F 44.6 °F 100% 29.62 in 10.0 mi WSW 9.2 mph - N/A   Overcast
10:34 PM 44.6 °F 39.7 °F 44.6 °F 100% 29.63 in 10.0 mi WSW 9.2 mph - N/A   Overcast
10:54 PM 44.6 °F 40.2 °F 44.6 °F 100% 29.63 in 7.0 mi WSW 8.1 mph - N/A   Overcast
11:14 PM 44.6 °F 40.7 °F 44.6 °F 100% 29.63 in 7.0 mi WSW 6.9 mph - N/A   Overcast
11:34 PM 44.6 °F 40.7 °F 44.6 °F 100% 29.63 in 7.0 mi WSW 6.9 mph - N/A Rain Light Rain
11:54 PM 44.6 °F 40.7 °F 44.6 °F 100% 29.63 in 7.0 mi WSW 6.9 mph - N/A Rain Rain